KU9TRY Weather Reports


time (UTC)temp
F
wind
direction
speed
knots
gust
knots
rain 1hr
in
rain 24hr
in
rain mn
in
humidity
%
barometer
mb
20260504014032 50 291 0.0 0.0 0.00 0.00 0.00 71 1016.1
20260504013529 51 289 0.0 0.0 0.00 0.00 0.00 74 1015.8
20260504013026 51 289 0.0 0.0 0.00 0.00 0.00 71 1016.0
20260504012524 52 289 0.0 0.0 0.00 0.00 0.00 66 1016.0
20260504012022 52 289 0.0 0.0 0.00 0.00 0.00 68 1015.8
20260504011518 52 289 0.0 0.0 0.00 0.00 0.00 66 1015.9
20260504011014 53 289 0.0 0.0 0.00 0.00 0.00 63 1016.0
20260504010510 54 289 0.0 0.0 0.00 0.00 0.00 59 1015.8
20260504010006 54 288 0.0 0.0 0.00 0.00 0.00 63 1016.1
20260504005503 55 288 0.0 0.0 0.00 0.00 0.00 58 1016.0
20260504005000 55 288 0.0 0.0 0.00 0.00 0.00 57 1016.0
20260504004458 56 287 0.0 0.0 0.00 0.00 0.00 55 1016.1
20260504003955 57 280 0.0 0.0 0.00 0.00 0.00 58 1015.6
20260504003451 57 280 0.0 0.0 0.00 0.00 0.00 57 1015.8
20260504002948 58 280 0.0 0.0 0.00 0.00 0.00 54 1016.1
20260504002444 59 276 0.0 0.0 0.00 0.00 0.00 55 1015.9
20260504001942 59 276 0.9 0.9 0.00 0.00 0.00 49 1015.8
20260504001439 59 274 0.0 0.9 0.00 0.00 0.00 47 1016.1
20260504000936 59 265 1.7 1.7 0.00 0.00 0.00 49 1015.9
20260504000433 59 273 0.9 0.9 0.00 0.00 0.00 45 1016.2
20260503235930 60 270 1.7 1.7 0.00 0.00 0.00 48 1016.3
20260503235428 60 266 0.9 0.9 0.00 0.00 0.00 45 1016.4
20260503234925 60 266 0.0 0.0 0.00 0.00 0.00 45 1016.3
20260503234423 60 266 0.9 0.9 0.00 0.00 0.00 47 1016.6
20260503233920 60 254 1.7 0.9 0.00 0.00 0.00 48 1016.5
20260503233417 60 264 1.7 1.7 0.00 0.00 0.00 45 1016.5
20260503232913 60 272 0.9 0.9 0.00 0.00 0.00 45 1016.5
20260503232410 60 275 0.9 0.9 0.00 0.00 0.00 45 1016.8
20260503231908 60 277 0.9 0.9 0.00 0.00 0.00 47 1016.5
20260503231405 60 276 0.9 0.9 0.00 0.00 0.00 50 1016.5
20260503230901 61 277 0.9 0.0 0.00 0.00 0.00 49 1016.5
20260503230358 61 278 0.9 0.9 0.00 0.00 0.00 48 1016.7
20260503225856 62 278 0.0 0.0 0.00 0.00 0.00 43 1016.6
20260503225351 61 267 0.9 0.9 0.00 0.00 0.00 43 1016.7
20260503224848 61 264 1.7 1.7 0.00 0.00 0.00 45 1016.8
20260503224345 62 260 1.7 1.7 0.00 0.00 0.00 47 1016.8
20260503223843 62 268 0.9 0.9 0.00 0.00 0.00 43 1016.8
20260503223341 63 276 0.0 0.0 0.00 0.00 0.00 38 1016.9
20260503222836 62 311 0.0 0.0 0.00 0.00 0.00 40 1016.9
20260503222335 62 270 0.9 0.9 0.00 0.00 0.00 46 1016.9
20260503221832 62 291 0.9 0.9 0.00 0.00 0.00 44 1017.2
20260503221331 63 295 0.9 0.9 0.00 0.00 0.00 43 1017.1
20260503220826 64 330 0.0 0.0 0.00 0.00 0.00 35 1017.2
20260503220324 63 293 0.9 0.9 0.00 0.00 0.00 39 1017.4
20260503215820 64 323 0.0 0.9 0.00 0.00 0.00 39 1017.5
20260503215318 64 305 0.9 0.9 0.00 0.00 0.00 34 1017.5
20260503214815 65 310 0.9 0.9 0.00 0.00 0.00 38 1017.7
20260503214312 65 307 0.0 0.0 0.00 0.00 0.00 33 1017.8
20260503213810 64 342 0.9 0.9 0.00 0.00 0.00 32 1017.9
20260503213307 65 265 0.9 0.9 0.00 0.00 0.00 37 1017.9
20260503212804 65 277 0.9 0.9 0.00 0.00 0.00 31 1017.9
20260503212302 65 327 0.9 0.9 0.00 0.00 0.00 34 1018.2
20260503211759 65 325 0.0 0.0 0.00 0.00 0.00 30 1018.1
20260503211255 65 327 1.7 1.7 0.00 0.00 0.00 32 1018.0
20260503210755 65 340 1.7 1.7 0.00 0.00 0.00 31 1018.0
20260503210253 65 337 0.0 0.0 0.00 0.00 0.00 33 1018.2
20260503205748 65 356 1.7 1.7 0.00 0.00 0.00 30 1018.3
20260503205245 65 351 4.3 5.2 0.00 0.00 0.00 31 1018.3
20260503204741 65 80 0.9 1.7 0.00 0.00 0.00 34 1018.3
20260503204239 65 110 0.9 0.9 0.00 0.00 0.00 32 1018.4
20260503203736 65 324 0.9 0.9 0.00 0.00 0.00 32 1018.5
20260503203234 65 315 0.0 0.0 0.00 0.00 0.00 33 1018.6
20260503202731 64 355 4.3 5.2 0.00 0.00 0.00 32 1018.7
20260503202229 65 312 0.9 0.9 0.00 0.00 0.00 35 1018.9
20260503201726 65 346 1.7 3.5 0.00 0.00 0.00 36 1018.9
20260503201224 65 305 1.7 0.9 0.00 0.00 0.00 41 1019.1
20260503200720 65 135 3.5 6.1 0.00 0.00 0.00 32 1018.9
20260503200216 64 352 0.9 1.7 0.00 0.00 0.00 37 1019.2
20260503195713 65 342 0.9 0.9 0.00 0.00 0.00 34 1019.5
20260503195210 64 1 0.9 0.9 0.00 0.00 0.00 35 1019.4
20260503194707 65 27 1.7 2.6 0.00 0.00 0.00 35 1019.4
20260503194203 64 237 1.7 1.7 0.00 0.00 0.00 36 1019.6
20260503193700 64 331 0.9 0.9 0.00 0.00 0.00 35 1019.6
20260503193155 64 343 1.7 0.9 0.00 0.00 0.00 36 1019.8
20260503192651 64 33 6.1 7.8 0.00 0.00 0.00 34 1019.7
20260503192147 63 9 0.9 1.7 0.00 0.00 0.00 37 1019.9
20260503191643 64 293 0.9 0.9 0.00 0.00 0.00 33 1019.8
20260503191141 64 340 1.7 1.7 0.00 0.00 0.00 36 1020.0
20260503190638 63 352 2.6 2.6 0.00 0.00 0.00 33 1020.1
20260503190134 64 331 1.7 1.7 0.00 0.00 0.00 36 1020.2
20260503185631 63 332 0.9 1.7 0.00 0.00 0.00 37 1020.1
20260503185126 63 347 2.6 2.6 0.00 0.00 0.00 41 1020.1
20260503184621 63 21 1.7 2.6 0.00 0.00 0.00 35 1020.4
20260503184118 62 294 0.9 1.7 0.00 0.00 0.00 35 1020.5
20260503183615 63 62 2.6 3.5 0.00 0.00 0.00 34 1020.7
20260503183112 62 315 0.0 0.9 0.00 0.00 0.00 39 1020.6
20260503182611 62 338 0.9 0.9 0.00 0.00 0.00 37 1020.9
20260503182108 62 305 0.9 0.9 0.00 0.00 0.00 36 1020.9
20260503181605 62 228 2.6 2.6 0.00 0.00 0.00 36 1020.6
20260503181102 62 168 2.6 3.5 0.00 0.00 0.00 38 1020.8
20260503180559 61 16 2.6 3.5 0.00 0.00 0.00 41 1020.9
20260503180056 61 349 2.6 3.5 0.00 0.00 0.00 40 1021.1
20260503175553 61 347 2.6 2.6 0.00 0.00 0.00 38 1021.1
20260503175050 61 353 3.5 3.5 0.00 0.00 0.00 44 1021.1
20260503174547 61 55 4.3 5.2 0.00 0.00 0.00 41 1021.2
20260503174044 60 318 0.9 0.9 0.00 0.00 0.00 44 1021.1
20260503173539 61 322 1.7 2.6 0.00 0.00 0.00 41 1021.4
20260503173035 60 346 2.6 2.6 0.00 0.00 0.00 41 1021.3
20260503172533 60 14 2.6 2.6 0.00 0.00 0.00 41 1021.4
20260503172030 60 245 1.7 1.7 0.00 0.00 0.00 41 1021.6
20260503171526 59 284 0.0 0.0 0.00 0.00 0.00 44 1021.5
20260503171024 61 183 4.3 5.2 0.00 0.00 0.00 40 1021.6
20260503170520 60 250 1.7 1.7 0.00 0.00 0.00 42 1021.5
20260503150913 55 334 0.9 0.9 0.00 0.00 0.00 71 1022.7
20260503150409 55 349 3.5 2.6 0.00 0.00 0.00 71 1022.7
20260503131302 45 324 0.0 0.0 0.00 0.00 0.00 95 1022.8
20260503130800 44 324 0.0 0.0 0.00 0.00 0.00 95 1022.8
20260503130257 44 324 0.0 0.0 0.00 0.00 0.00 95 1022.8
20260503110650 39 297 0.0 0.0 0.00 0.00 0.00 99 1021.7
20260503110148 39 297 0.0 0.0 0.00 0.00 0.00 99 1021.4
20260503100114 39 297 0.0 0.0 0.00 0.00 0.00 98 1021.0
20260503081504 40 306 0.0 0.0 0.00 0.00 0.00 98 1020.9
20260503081001 40 306 0.0 0.0 0.00 0.00 0.00 98 1020.7
20260503080457 40 306 0.0 0.0 0.00 0.00 0.00 98 1020.9
20260503072933 41 306 0.0 0.0 0.00 0.00 0.00 97 1020.6
20260503072431 41 306 0.0 0.0 0.00 0.00 0.00 97 1020.3
20260503071928 41 306 0.0 0.0 0.00 0.00 0.00 97 1020.4
20260503071425 41 306 0.0 0.0 0.00 0.00 0.00 97 1020.5
20260503070921 41 306 0.0 0.0 0.00 0.00 0.00 97 1020.5
20260503070418 41 306 0.0 0.0 0.00 0.00 0.00 97 1020.5
20260503054832 41 306 0.0 0.0 0.00 0.00 0.00 96 1020.4
20260503054327 41 306 0.0 0.0 0.00 0.00 0.00 96 1020.4
20260503053826 41 306 0.0 0.0 0.00 0.00 0.00 96 1020.4
20260503053324 41 306 0.0 0.0 0.00 0.00 0.00 96 1020.3
20260503052820 42 306 0.0 0.0 0.00 0.00 0.00 96 1020.2
20260503052317 42 306 0.0 0.0 0.00 0.00 0.00 96 1020.3
20260503051813 42 306 0.0 0.0 0.00 0.00 0.00 96 1020.3
20260503051309 42 306 0.0 0.0 0.00 0.00 0.00 96 1020.3
20260503050806 42 306 0.0 0.0 0.00 0.00 0.00 96 1020.1
20260503050302 42 306 0.0 0.0 0.00 0.00 0.00 96 1020.0
20260503045800 42 306 0.0 0.0 0.00 0.00 0.00 96 1020.1
20260503045258 42 306 0.0 0.0 0.00 0.00 0.00 96 1020.0
20260503044754 42 306 0.0 0.0 0.00 0.00 0.00 95 1019.9
20260503044251 43 306 0.0 0.0 0.00 0.00 0.00 95 1019.9
20260503043748 42 306 0.0 0.0 0.00 0.00 0.00 96 1019.9
20260503043245 43 306 0.0 0.0 0.00 0.00 0.00 95 1019.9
20260503042741 44 306 0.0 0.0 0.00 0.00 0.00 95 1020.0
20260503042238 44 306 0.0 0.0 0.00 0.00 0.00 95 1019.8
20260503041734 44 306 0.0 0.0 0.00 0.00 0.00 95 1020.0
20260503041232 44 306 0.0 0.0 0.00 0.00 0.00 95 1020.0
20260503040729 44 306 0.0 0.0 0.00 0.00 0.00 95 1019.8
20260503040227 44 306 0.0 0.0 0.00 0.00 0.00 95 1019.9
20260503035723 44 306 0.0 0.0 0.00 0.00 0.00 95 1019.7
20260503035221 44 306 0.0 0.0 0.00 0.00 0.00 94 1019.7
20260503034718 44 306 0.0 0.0 0.00 0.00 0.00 94 1019.7
20260503034215 44 306 0.0 0.0 0.00 0.00 0.00 94 1019.9
20260503033712 45 306 0.0 0.0 0.00 0.00 0.00 94 1019.6
20260503033209 45 306 0.0 0.0 0.00 0.00 0.00 94 1019.6
20260503032708 45 306 0.0 0.0 0.00 0.00 0.00 94 1019.7
20260503032206 45 306 0.0 0.0 0.00 0.00 0.00 94 1019.6
20260503031703 45 306 0.0 0.0 0.00 0.00 0.00 94 1019.6
20260503031201 45 306 0.0 0.0 0.00 0.00 0.00 93 1019.7
20260503030656 45 306 0.0 0.0 0.00 0.00 0.00 93 1019.5
20260503030153 45 306 0.0 0.0 0.00 0.00 0.00 93 1019.6
20260503025650 45 306 0.0 0.0 0.00 0.00 0.00 92 1019.3
20260503025148 45 306 0.0 0.0 0.00 0.00 0.00 92 1019.5
20260503024644 45 306 0.0 0.0 0.00 0.00 0.00 91 1019.6
20260503024142 46 306 0.0 0.0 0.00 0.00 0.00 90 1019.5
20260503023638 46 306 0.0 0.0 0.00 0.00 0.00 91 1019.4
20260503023135 47 306 0.0 0.0 0.00 0.00 0.00 89 1019.4
20260503022631 47 306 0.0 0.0 0.00 0.00 0.00 89 1019.2
20260503022126 47 306 0.0 0.0 0.00 0.00 0.00 89 1019.3
20260503021623 47 306 0.0 0.0 0.00 0.00 0.00 88 1019.1
20260503021120 48 306 0.0 0.0 0.00 0.00 0.00 87 1019.1
20260503020617 48 306 0.0 0.0 0.00 0.00 0.00 87 1019.2
20260503020114 48 306 0.0 0.0 0.00 0.00 0.00 87 1019.3
20260503015611 48 306 0.0 0.0 0.00 0.00 0.00 86 1019.1
20260503015108 48 306 0.0 0.0 0.00 0.00 0.00 86 1019.1
20260503014603 48 306 0.9 0.9 0.00 0.00 0.00 86 1019.0